Regional Weather Roundup
Issued by NWS Nashville, TN

Home | Current Version | Previous Version | Text Only | Print | Product List | Glossary On
Versions: 1 2 3 4 5 6 7 8 9 10 11 12 13 14 15 16 17 18 19 20 21 22 23 24 25 26 27 28 29 30 31 32 33 34 35 36 37 38 39 40 41 42 43 44 45 46 47 48 49 50
177
ASUS44 KOHX 170210
RWROHX
MIDDLE TENNESSEE HOURLY WEATHER ROUNDUP
NATIONAL WEATHER SERVICE NASHVILLE TN
900 PM CDT MON OCT 16 2017

NOTE: "FAIR" INDICATES FEW OR NO CLOUDS BELOW 12,000 FEET WITH
NO SIGNIFICANT WEATHER AND/OR OBSTRUCTIONS TO VISIBILITY.

* THESE REPORTS ARE NOT UNDER NWS QUALITY CONTROL AND MAY NOT
  REPORT WEATHER SUCH AS PRECIPITATION AND FOG.


TNZ005>011-023>034-057-059-062>066-078-080-170300
...NORTHERN MIDDLE TENNESSEE...

CITY           SKY/WX    TMP DP  RH WIND       PRES   REMARKS
CLARKSVILLE    CLEAR     49  41  74 N5        30.31S
CROSSVILLE     CLEAR     48  38  68 NE5       30.30R
GALLATIN       PTCLDY    52  43  71 N6        30.33S
DICKSON          N/A     49  40  71 NE5       30.29S
LEBANON        CLEAR     49  41  74 CALM      30.28S
NASHVILLE      CLEAR     54  42  64 N7        30.30S
PORTLAND       CLEAR     48  45  87 CALM      30.30S
SMYRNA         CLEAR     51  43  74 N6        30.31S
SPARTA         CLEAR     43  43 100 CALM      30.29R
SPRINGFIELD    CLEAR     50  43  76 CALM      30.29R
WEST NASHVILLE CLEAR     52  45  76 N5        30.28S
$$
TNZ056-058-060-061-075>077-079-093>097-170300
...SOUTHERN MIDDLE TENNESSEE...

CITY           SKY/WX    TMP DP  RH WIND       PRES   REMARKS
COLUMBIA       CLEAR     52  43  71 CALM      30.27S
FAYETTEVILLE   CLEAR     52  43  71 N7        30.26S
MURFREESBORO   CLEAR     52  42  68 CALM      30.29S
PULASKI        CLEAR     52  43  71 CALM      30.27S
SHELBYVILLE    CLEAR     52  43  71 NE7       30.29R
TULLAHOMA      CLEAR     50  41  71 N5        30.29R
WINCHESTER     CLEAR     46  43  87 CALM        N/A
$$


...KEY TO REMARKS...
VSB - VISIBILITY IN MILES
WCI - WIND CHILL INDEX
HX  - HEAT INDEX





USA.gov is the U.S. government's official web portal to all federal, state and local government web resources and services.